Location: City of Moscow
(46.7306°N, 116.9989°W)
Time: 01:09:36
(UTC+00:00)

Tiangong - Pass Details

Date: 19 February 2026
Orbit: 381 x 391 km, 41.5° (Epoch: 7 March)

Event Time Altitude Azimuth Distance (km) Brightness Sun altitude
Rises 02:28:05 0° 263° (W) 2,257 3.9 -12.7°
Reaches altitude 10° 02:30:23 10° 249° (WSW) 1,400 2.0 -13.1°
Maximum altitude 02:33:00 24° 193° (SSW) 843 -0.3 -13.5°
Enters shadow 02:35:01 14° 144° (SE) 1,201 0.0 -13.9°
